This is the latest recevied weather packets stored in our database for station/object DM1RG-6. If no packets are shown the sender has not sent any weather packets the latest 1 day(s).
| Time | Temp. | Humidity | Pressure | Rain* | Wind** | Luminosity | Snow |
|---|---|---|---|---|---|---|---|
| 1778055844 | 11.67° C | 100% | 1003.8 hPa | 0 mm | - | - | - |
| 1778055484 | 11.67° C | 100% | 1004 hPa | 0 mm | - | - | - |
| 1778055124 | 11.67° C | 100% | 1003.9 hPa | 0 mm | - | - | - |
| 1778052964 | 11.67° C | 100% | 1003.5 hPa | 0.25 mm | - | - | - |
| 1778052604 | 11.11° C | 100% | 1003.6 hPa | 0.25 mm | - | - | - |
| 1778052244 | 11.67° C | 100% | 1003.6 hPa | 0.25 mm | - | - | - |
| 1778051884 | 11.67° C | 100% | 1003.8 hPa | 0.25 mm | - | - | - |
| 1778051524 | 11.11° C | 100% | 1003.6 hPa | 0.25 mm | - | - | - |
| 1778050804 | 11.11° C | 100% | 1003.4 hPa | 0.25 mm | - | - | - |
| 1778050084 | 11.11° C | 100% | 1003.2 hPa | 0.51 mm | - | - | - |
| 1778047204 | 11.11° C | 100% | 1003.2 hPa | 1.27 mm | - | - | - |
| 1778046484 | 11.67° C | 100% | 1003.3 hPa | 1.52 mm | - | - | - |
| 1778043964 | 11.67° C | 100% | 1003.1 hPa | 2.79 mm | - | - | - |
| 1778042884 | 11.67° C | 100% | 1003.3 hPa | 3.3 mm | - | - | - |
| 1778041084 | 11.67° C | 100% | 1003.4 hPa | 2.79 mm | - | - | - |
| 1778040364 | 11.67° C | 100% | 1003.4 hPa | 2.03 mm | - | - | - |
| 1778039284 | 11.67° C | 100% | 1003.8 hPa | 1.27 mm | - | - | - |
| 1778038923 | 11.67° C | 100% | 1003.6 hPa | 1.02 mm | - | - | - |
| 1778037844 | 11.67° C | 100% | 1003.6 hPa | 1.02 mm | - | - | - |
| 1778037124 | 11.67° C | 100% | 1003.9 hPa | 1.27 mm | - | - | - |
| 1778036044 | 11.67° C | 100% | 1004.2 hPa | 1.52 mm | - | - | - |
| 1778035684 | 11.67° C | 100% | 1004.3 hPa | 1.52 mm | - | - | - |
| 1778034604 | 11.67° C | 100% | 1004.2 hPa | 1.78 mm | - | - | - |
| 1778033884 | 11.67° C | 100% | 1004.5 hPa | 1.78 mm | - | - | - |
| 1778033524 | 11.67° C | 100% | 1004.7 hPa | 1.78 mm | - | - | - |
* Rain latest hour (hover to see other rain measurements)
** Current wind speed in m/s (hover to see current wind gust speed)